Chatham, MA

4:54 AM EST on December 07, 2019 (GMT -0500)
Chatham Municipal

Weather History for KCQX - October, 2019

Change the Weather History Date:

Friday, October 11, 2019

  Actual Average Record
Temperature  
Mean Temperature 55 °F -  
Max Temperature 57 °F 60 °F 73 °F (2018)
Min Temperature 55 °F 46 °F 39 °F (1972)
Degree Days  
Heating Degree Days 10    
Growing Degree Days 5 (Base 50)    
Moisture  
Dew Point 54 °F    
Average Humidity 93    
Maximum Humidity 96    
Minimum Humidity 80    
Precipitation  
Precipitation 0.65 in - - ()
Sea Level Pressure  
Sea Level Pressure 30.02 in    
Wind  
Wind Speed 20 mph (NE)    
Max Wind Speed 25 mph    
Max Gust Speed 41 mph    
Visibility 4 miles    
Events Rain    
Averages and records for this station are not official NWS values.
T = Trace of Precipitation, MM = Missing Value Source: NWS Daily Summary

Daily Weather History Graph

Daily Weather History Graph

Search for Another Location

Airport or City:

Astronomy

Oct. 11, 2019 Rise Set
Actual Time 6:47 AM EDT 6:05 PM EDT
Civil Twilight 6:19 AM EDT 6:33 PM EDT
Nautical Twilight 5:47 AM EDT 7:05 PM EDT
Astronomical Twilight 5:15 AM EDT 7:37 PM EDT
Moon 5:35 PM EDT (10/11) 4:21 AM EDT (10/11)
Length of Visible Light 12h 13m
Length of Day
11h 18m
Waxing Gibbous, 96% of the Moon is Illuminated
Oct 11
Waxing Gibbous
Oct 13
Full
Oct 21
Last Quarter
Oct 27
New
Nov 4
First Quarter

Hourly Weather History & Observations

Time (EDT) Temp. Dew Point Humidity Pressure Visibility Wind Dir Wind Speed Gust Speed Precip Events Conditions
12:44 AM 55.9 °F 50.0 °F 80% 30.09 in 10.0 mi NE 20.7 mph 35.7 mph N/A   Overcast
12:52 AM 55.9 °F 51.1 °F 84% 30.09 in 10.0 mi NE 19.6 mph 34.5 mph N/A   Overcast
1:06 AM 55.9 °F 51.1 °F 84% 30.09 in 10.0 mi NE 21.9 mph 34.5 mph N/A   Overcast
1:52 AM 55.9 °F 52.0 °F 87% 30.08 in 8.0 mi NE 19.6 mph 35.7 mph 0.00 in Rain Light Rain
2:52 AM 55.9 °F 52.0 °F 87% 30.06 in 8.0 mi NE 19.6 mph 32.2 mph 0.00 in Rain Light Rain
3:16 AM 55.9 °F 53.1 °F 90% 30.06 in 4.0 mi NE 20.7 mph 34.5 mph 0.02 in Rain Rain
3:52 AM 55.9 °F 53.1 °F 90% 30.06 in 7.0 mi NE 18.4 mph 29.9 mph 0.05 in Rain Light Rain
4:29 AM 55.9 °F 54.0 °F 93% 30.05 in 6.0 mi NE 15.0 mph 25.3 mph 0.03 in Rain Light Rain
4:52 AM 55.9 °F 54.0 °F 93% 30.05 in 6.0 mi NE 18.4 mph 34.5 mph 0.04 in Rain Light Rain
5:52 AM 55.9 °F 54.0 °F 93% 30.06 in 3.0 mi NE 15.0 mph 31.1 mph 0.02 in Rain Light Rain
6:04 AM 55.9 °F 54.0 °F 93% 30.06 in 2.5 mi NE 21.9 mph 32.2 mph 0.00 in Rain Light Rain
6:11 AM 55.9 °F 54.0 °F 93% 30.06 in 3.0 mi NE 17.3 mph 38.0 mph 0.01 in Rain Light Rain
6:18 AM 55.9 °F 54.0 °F 93% 30.06 in 2.0 mi NE 17.3 mph 33.4 mph 0.03 in Rain Rain
6:25 AM 55.9 °F 54.0 °F 93% 30.06 in 1.5 mi NE 17.3 mph 35.7 mph 0.07 in Rain Heavy Rain
6:41 AM 55.9 °F 54.0 °F 93% 30.05 in 2.0 mi NNE 13.8 mph 32.2 mph 0.10 in Rain Rain
6:52 AM 55.9 °F 54.0 °F 93% 30.06 in 3.0 mi NE 13.8 mph 28.8 mph 0.12 in Rain Rain
7:08 AM 55.9 °F 54.0 °F 93% 30.05 in 3.0 mi NE 18.4 mph 32.2 mph 0.01 in Rain Light Rain
7:17 AM 55.9 °F 54.0 °F 93% 30.05 in 2.0 mi NE 23.0 mph 36.8 mph 0.04 in Rain Rain
7:34 AM 55.9 °F 54.0 °F 93% 30.05 in 1.2 mi NE 19.6 mph 33.4 mph 0.08 in Rain Rain
7:45 AM 55.9 °F 54.0 °F 93% 30.05 in 1.8 mi NE 23.0 mph 38.0 mph 0.10 in Rain Light Rain
7:52 AM 55.9 °F 54.0 °F 93% 30.06 in 2.0 mi NE 17.3 mph 36.8 mph 0.11 in Rain Light Rain
8:20 AM 55.9 °F 54.0 °F 93% 30.05 in 1.5 mi NE 18.4 mph 35.7 mph 0.04 in Rain Rain
8:52 AM 55.9 °F 54.0 °F 93% 30.05 in 2.5 mi NE 21.9 mph 38.0 mph 0.13 in Rain Light Rain
8:59 AM 55.9 °F 54.0 °F 93% 30.04 in 3.0 mi NE 25.3 mph 40.3 mph 0.00 in Rain Light Rain
9:07 AM 55.9 °F 54.0 °F 93% 30.05 in 2.0 mi NE 21.9 mph 38.0 mph 0.00 in Rain Light Rain
9:25 AM 55.0 °F 54.0 °F 96% 30.04 in 1.8 mi NE 21.9 mph 35.7 mph 0.01 in Rain Light Rain
9:39 AM 55.0 °F 54.0 °F 96% 30.04 in 2.5 mi NE 25.3 mph 39.1 mph 0.02 in Rain Light Rain
9:52 AM 55.9 °F 54.0 °F 93% 30.04 in 5.0 mi NE 23.0 mph 39.1 mph 0.02 in   Overcast
10:35 AM 55.9 °F 54.0 °F 93% 30.05 in 2.5 mi NE 18.4 mph 34.5 mph 0.00 in Rain Light Rain
10:52 AM 55.0 °F 53.1 °F 93% 30.05 in 2.5 mi NE 19.6 mph 35.7 mph 0.00 in Rain Light Rain
11:05 AM 55.0 °F 54.0 °F 96% 30.04 in 3.0 mi NE 23.0 mph 36.8 mph 0.00 in Rain Light Rain
11:13 AM 55.0 °F 53.1 °F 93% 30.04 in 1.8 mi NE 19.6 mph 39.1 mph 0.01 in Rain Light Rain
11:52 AM 55.9 °F 54.0 °F 93% 30.04 in 1.5 mi NE 21.9 mph 35.7 mph 0.04 in Rain Light Rain
12:10 PM 55.9 °F 54.0 °F 93% 30.04 in 3.0 mi NE 19.6 mph 39.1 mph 0.00 in Rain Light Rain
12:52 PM 55.9 °F 54.0 °F 93% 30.04 in 6.0 mi NE 18.4 mph 35.7 mph 0.01 in   Overcast
1:33 PM 55.9 °F 54.0 °F 93% 30.02 in 2.5 mi NE 18.4 mph 35.7 mph 0.00 in Rain Light Rain
1:48 PM 55.4 °F 53.6 °F 94% 30.02 in 2.5 mi NE 20.7 mph 36.8 mph 0.00 in Rain Light Rain
1:52 PM 55.9 °F 54.0 °F 93% 30.02 in 2.5 mi NE 23.0 mph 39.1 mph 0.00 in Rain Light Rain
2:01 PM 55.9 °F 54.0 °F 93% 30.02 in 3.0 mi NE 20.7 mph 34.5 mph 0.00 in Rain Light Rain
2:18 PM 55.9 °F 54.0 °F 93% 30.01 in 4.0 mi NE 18.4 mph 38.0 mph 0.00 in Rain Light Rain
2:44 PM 55.9 °F 54.0 °F 93% 30.00 in 4.0 mi NE 21.9 mph 35.7 mph 0.00 in Rain Light Rain
2:52 PM 55.9 °F 54.0 °F 93% 30.01 in 4.0 mi NE 19.6 mph 34.5 mph 0.00 in Rain Light Rain
3:01 PM 55.9 °F 54.0 °F 93% 30.00 in 4.0 mi NE 19.6 mph 35.7 mph 0.00 in Rain Light Rain
3:26 PM 55.9 °F 54.0 °F 93% 30.00 in 3.0 mi NE 24.2 mph 35.7 mph 0.01 in Rain Light Rain
3:41 PM 55.9 °F 54.0 °F 93% 29.99 in 1.8 mi NE 24.2 mph 36.8 mph 0.02 in Rain Rain
3:52 PM 55.9 °F 54.0 °F 93% 30.00 in 2.5 mi NE 18.4 mph 33.4 mph 0.03 in Rain Light Rain
3:59 PM 55.9 °F 54.0 °F 93% 30.00 in 4.0 mi NE 18.4 mph 35.7 mph 0.00 in   Overcast
4:38 PM 55.9 °F 54.0 °F 93% 30.00 in 2.0 mi NE 23.0 mph 39.1 mph 0.00 in Rain Light Rain
4:52 PM 55.9 °F 54.0 °F 93% 30.00 in 2.5 mi NE 17.3 mph 36.8 mph 0.01 in Rain Light Rain
4:59 PM 55.9 °F 54.0 °F 93% 30.00 in 4.0 mi NE 18.4 mph 38.0 mph 0.00 in Rain Light Rain
5:15 PM 55.9 °F 54.0 °F 93% 30.00 in 6.0 mi NE 21.9 mph 34.5 mph 0.00 in Rain Light Rain
5:43 PM 55.9 °F 54.0 °F 93% 30.00 in 2.0 mi NE 21.9 mph 39.1 mph 0.00 in Rain Light Rain
5:52 PM 55.0 °F 54.0 °F 96% 30.00 in 1.2 mi NE 19.6 mph 41.4 mph 0.00 in Rain Light Rain
6:05 PM 55.0 °F 54.0 °F 96% 30.00 in 1.5 mi NE 20.7 mph 35.7 mph 0.01 in Rain Light Rain
6:14 PM 55.0 °F 54.0 °F 96% 30.00 in 2.0 mi NE 19.6 mph 32.2 mph 0.02 in Rain Light Rain
6:52 PM 55.0 °F 54.0 °F 96% 30.00 in 2.5 mi NE 18.4 mph 34.5 mph 0.03 in Rain Light Rain
6:59 PM 55.0 °F 54.0 °F 96% 30.00 in 3.0 mi NE 20.7 mph 33.4 mph 0.00 in Rain Light Rain
7:06 PM 55.0 °F 54.0 °F 96% 30.00 in 2.5 mi NE 18.4 mph 28.8 mph 0.00 in Rain Light Rain
7:22 PM 55.0 °F 54.0 °F 96% 30.00 in 3.0 mi NE 18.4 mph 33.4 mph 0.00 in Rain Light Rain
7:34 PM 55.0 °F 54.0 °F 96% 30.00 in 2.5 mi NE 20.7 mph 34.5 mph 0.01 in Rain Light Rain
7:42 PM 55.0 °F 53.1 °F 93% 30.00 in 4.0 mi NE 20.7 mph 34.5 mph 0.01 in Rain Light Rain
7:52 PM 55.0 °F 54.0 °F 96% 30.00 in 3.0 mi NE 18.4 mph 32.2 mph 0.01 in Rain Light Rain
8:33 PM 55.0 °F 54.0 °F 96% 29.99 in 4.0 mi NE 20.7 mph 34.5 mph 0.01 in Rain Light Rain
8:52 PM 55.0 °F 53.1 °F 93% 29.99 in 5.0 mi NE 18.4 mph 32.2 mph 0.01 in Rain Light Rain
9:27 PM 55.0 °F 53.1 °F 93% 29.98 in 5.0 mi NE 20.7 mph 32.2 mph 0.00 in Rain Light Rain
9:38 PM 55.0 °F 54.0 °F 96% 29.98 in 4.0 mi NE 17.3 mph 28.8 mph 0.01 in Rain Light Rain
9:52 PM 55.0 °F 54.0 °F 96% 29.99 in 5.0 mi NE 19.6 mph 34.5 mph 0.01 in Rain Light Rain
10:45 PM 55.0 °F 53.1 °F 93% 29.96 in 2.5 mi NE 20.7 mph 36.8 mph 0.00 in Rain Light Rain
10:52 PM 55.0 °F 54.0 °F 96% 29.96 in 2.0 mi NE 16.1 mph 28.8 mph 0.01 in Rain Light Rain
11:19 PM 55.0 °F 53.1 °F 93% 29.94 in 4.0 mi NE 15.0 mph 31.1 mph 0.00 in Rain Light Rain
11:52 PM 55.0 °F 54.0 °F 96% 29.94 in 6.0 mi NE 23.0 mph 31.1 mph 0.00 in   Overcast